Time,TemperatureF,DewpointF,PressureIn,WindDirection,WindDirectionDegrees,WindSpeedMPH,WindSpeedGustMPH,Humidity,HourlyPrecipIn,Conditions,Clouds,dailyrainin,SoftwareType,DateUTC
2013-03-24 00:02:00,34.2,32.0,30.29,SSW,212,0.0,0.0,93,0.00,,,0.00,weatherlink.com 1.10,2013-03-24 07:02:00,
2013-03-24 00:17:00,34.1,33.0,30.29,SSW,213,0.0,1.0,95,0.00,,,0.00,weatherlink.com 1.10,2013-03-24 07:17:00,
2013-03-24 00:32:00,33.8,32.0,30.29,SSW,212,0.0,0.0,94,0.00,,,0.00,weatherlink.com 1.10,2013-03-24 07:32:00,
2013-03-24 00:47:00,33.6,32.0,30.29,SSW,213,0.0,0.0,94,0.00,,,0.00,weatherlink.com 1.10,2013-03-24 07:47:00,
2013-03-24 01:02:00,33.6,32.0,30.29,SSW,212,0.0,0.0,95,0.00,,,0.00,weatherlink.com 1.10,2013-03-24 08:02:00,
2013-03-24 01:17:00,33.0,32.0,30.29,SSW,212,0.0,0.0,96,0.00,,,0.00,weatherlink.com 1.10,2013-03-24 08:17:00,
2013-03-24 01:32:00,33.3,32.0,30.29,SW,215,0.0,0.0,96,0.00,,,0.00,weatherlink.com 1.10,2013-03-24 08:32:00,
2013-03-24 01:47:00,33.2,33.0,30.29,SW,224,0.0,1.0,97,0.00,,,0.00,weatherlink.com 1.10,2013-03-24 08:47:00,
2013-03-24 02:02:00,32.7,32.0,30.29,SW,224,0.0,0.0,95,0.00,,,0.00,weatherlink.com 1.10,2013-03-24 09:02:00,
2013-03-24 02:17:00,32.1,31.0,30.29,SW,224,0.0,0.0,96,0.00,,,0.00,weatherlink.com 1.10,2013-03-24 09:17:00,
2013-03-24 02:32:00,32.1,31.0,30.29,SW,224,0.0,1.0,97,0.00,,,0.00,weatherlink.com 1.10,2013-03-24 09:32:00,
2013-03-24 02:47:00,31.6,31.0,30.29,SW,226,0.0,0.0,96,0.00,,,0.00,weatherlink.com 1.10,2013-03-24 09:47:00,
2013-03-24 03:02:00,31.5,31.0,30.29,SW,226,0.0,0.0,97,0.00,,,0.00,weatherlink.com 1.10,2013-03-24 10:02:00,
2013-03-24 03:17:00,31.7,31.0,30.29,SW,226,0.0,0.0,97,0.00,,,0.00,weatherlink.com 1.10,2013-03-24 10:17:00,
2013-03-24 03:32:00,31.7,31.0,30.29,WSW,245,0.0,1.0,97,0.00,,,0.00,weatherlink.com 1.10,2013-03-24 10:32:00,
2013-03-24 03:47:00,31.5,31.0,30.29,SW,215,0.0,0.0,97,0.00,,,0.00,weatherlink.com 1.10,2013-03-24 10:47:00,
2013-03-24 04:03:00,31.5,31.0,30.28,SW,215,0.0,0.0,98,0.00,,,0.00,weatherlink.com 1.10,2013-03-24 11:03:00,
2013-03-24 04:18:00,30.8,30.0,30.28,SW,215,0.0,0.0,97,0.00,,,0.00,weatherlink.com 1.10,2013-03-24 11:18:00,
2013-03-24 04:33:00,31.2,31.0,30.28,WSW,246,0.0,1.0,98,0.00,,,0.00,weatherlink.com 1.10,2013-03-24 11:33:00,
2013-03-24 04:48:00,31.5,31.0,30.28,WSW,247,0.0,0.0,98,0.00,,,0.00,weatherlink.com 1.10,2013-03-24 11:48:00,
2013-03-24 05:03:00,31.3,31.0,30.28,WSW,247,0.0,0.0,98,0.00,,,0.00,weatherlink.com 1.10,2013-03-24 12:03:00,
2013-03-24 05:18:00,31.5,31.0,30.27,WSW,248,0.0,0.0,98,0.00,,,0.00,weatherlink.com 1.10,2013-03-24 12:18:00,
2013-03-24 05:33:00,31.3,31.0,30.27,WSW,248,0.0,0.0,98,0.00,,,0.00,weatherlink.com 1.10,2013-03-24 12:33:00,
2013-03-24 05:48:00,31.5,31.0,30.27,WSW,248,0.0,0.0,98,0.00,,,0.00,weatherlink.com 1.10,2013-03-24 12:48:00,
2013-03-24 06:03:00,32.0,32.0,30.27,WSW,248,0.0,0.0,98,0.00,,,0.00,weatherlink.com 1.10,2013-03-24 13:03:00,
2013-03-24 06:18:00,32.2,32.0,30.27,WSW,248,0.0,0.0,98,0.00,,,0.00,weatherlink.com 1.10,2013-03-24 13:18:00,
2013-03-24 06:33:00,32.8,32.0,30.27,WSW,248,0.0,1.0,98,0.00,,,0.00,weatherlink.com 1.10,2013-03-24 13:33:00,
2013-03-24 06:48:00,32.6,32.0,30.27,WSW,248,0.0,0.0,98,0.00,,,0.00,weatherlink.com 1.10,2013-03-24 13:48:00,
2013-03-24 07:03:00,32.4,32.0,30.27,WSW,248,0.0,0.0,98,0.00,,,0.00,weatherlink.com 1.10,2013-03-24 14:03:00,
2013-03-24 07:18:00,32.7,32.0,30.27,WSW,248,0.0,1.0,98,0.00,,,0.00,weatherlink.com 1.10,2013-03-24 14:18:00,
2013-03-24 07:33:00,32.9,32.0,30.27,SSE,160,0.0,1.0,98,0.00,,,0.00,weatherlink.com 1.10,2013-03-24 14:33:00,
2013-03-24 07:48:00,33.4,33.0,30.27,SSE,158,0.0,1.0,98,0.00,,,0.00,weatherlink.com 1.10,2013-03-24 14:48:00,
2013-03-24 08:03:00,33.9,33.0,30.26,SW,218,0.0,0.0,98,0.00,,,0.00,weatherlink.com 1.10,2013-03-24 15:03:00,
2013-03-24 08:18:00,34.3,34.0,30.26,SW,218,0.0,0.0,99,0.00,,,0.00,weatherlink.com 1.10,2013-03-24 15:18:00,
2013-03-24 08:33:00,34.6,34.0,30.26,SW,218,0.0,0.0,99,0.00,,,0.00,weatherlink.com 1.10,2013-03-24 15:33:00,
2013-03-24 08:48:00,35.8,36.0,30.26,SW,219,0.0,0.0,99,0.00,,,0.00,weatherlink.com 1.10,2013-03-24 15:48:00,
2013-03-24 09:03:00,36.7,37.0,30.25,North,353,0.0,1.0,99,0.00,,,0.00,weatherlink.com 1.10,2013-03-24 16:03:00,
2013-03-24 09:18:00,37.1,37.0,30.26,North,360,0.0,1.0,98,0.00,,,0.00,weatherlink.com 1.10,2013-03-24 16:18:00,
2013-03-24 09:33:00,37.7,37.0,30.26,WNW,297,0.0,1.0,98,0.00,,,0.00,weatherlink.com 1.10,2013-03-24 16:33:00,
2013-03-24 09:48:00,38.3,38.0,30.26,ENE,77,0.0,2.0,98,0.00,,,0.00,weatherlink.com 1.10,2013-03-24 16:48:00,
2013-03-24 10:03:00,38.8,38.0,30.26,NW,304,0.0,1.0,97,0.00,,,0.00,weatherlink.com 1.10,2013-03-24 17:03:00,
2013-03-24 10:18:00,39.8,38.0,30.26,North,8,0.0,1.0,94,0.00,,,0.00,weatherlink.com 1.10,2013-03-24 17:18:00,
2013-03-24 10:33:00,40.3,38.0,30.26,NW,321,0.0,1.0,90,0.00,,,0.00,weatherlink.com 1.10,2013-03-24 17:33:00,
2013-03-24 10:48:00,41.0,38.0,30.25,NW,311,0.0,1.0,88,0.00,,,0.00,weatherlink.com 1.10,2013-03-24 17:48:00,
2013-03-24 11:03:00,41.6,36.0,30.25,North,349,0.0,1.0,81,0.00,,,0.00,weatherlink.com 1.10,2013-03-24 18:03:00,
2013-03-24 11:18:00,42.2,36.0,30.25,North,4,1.0,3.0,79,0.00,,,0.00,weatherlink.com 1.10,2013-03-24 18:18:00,
2013-03-24 11:33:00,43.1,38.0,30.24,ESE,110,0.0,2.0,81,0.00,,,0.00,weatherlink.com 1.10,2013-03-24 18:33:00,
2013-03-24 11:48:00,44.1,38.0,30.24,NNW,338,0.0,3.0,79,0.00,,,0.00,weatherlink.com 1.10,2013-03-24 18:48:00,
2013-03-24 12:04:00,45.5,35.0,30.24,East,79,0.0,1.0,67,0.00,,,0.00,weatherlink.com 1.10,2013-03-24 19:04:00,
2013-03-24 12:19:00,46.5,34.0,30.24,NE,49,0.0,1.0,63,0.00,,,0.00,weatherlink.com 1.10,2013-03-24 19:19:00,
2013-03-24 12:34:00,46.3,35.0,30.23,ENE,71,2.0,3.0,64,0.00,,,0.00,weatherlink.com 1.10,2013-03-24 19:34:00,
2013-03-24 12:49:00,46.5,35.0,30.23,East,101,2.0,4.0,64,0.00,,,0.00,weatherlink.com 1.10,2013-03-24 19:49:00,
2013-03-24 13:04:00,47.9,36.0,30.23,NNE,18,0.0,2.0,63,0.00,,,0.00,weatherlink.com 1.10,2013-03-24 20:04:00,
2013-03-24 13:19:00,47.8,35.0,30.22,NNE,25,4.0,4.0,61,0.00,,,0.00,weatherlink.com 1.10,2013-03-24 20:19:00,
2013-03-24 13:34:00,48.8,35.0,30.22,ENE,61,2.0,3.0,60,0.00,,,0.00,weatherlink.com 1.10,2013-03-24 20:34:00,
2013-03-24 13:49:00,49.1,35.0,30.22,East,96,1.0,4.0,58,0.00,,,0.00,weatherlink.com 1.10,2013-03-24 20:49:00,
2013-03-24 14:04:00,48.9,34.0,30.21,ENE,60,1.0,3.0,57,0.00,,,0.00,weatherlink.com 1.10,2013-03-24 21:04:00,
2013-03-24 14:19:00,50.1,35.0,30.21,WSW,247,0.0,2.0,56,0.00,,,0.00,weatherlink.com 1.10,2013-03-24 21:19:00,
2013-03-24 14:34:00,50.1,35.0,30.20,ENE,76,0.0,3.0,57,0.00,,,0.00,weatherlink.com 1.10,2013-03-24 21:34:00,
2013-03-24 14:49:00,51.4,34.0,30.20,South,173,1.0,1.0,51,0.00,,,0.00,weatherlink.com 1.10,2013-03-24 21:49:00,
2013-03-24 15:04:00,51.5,34.0,30.19,ENE,58,1.0,2.0,52,0.00,,,0.00,weatherlink.com 1.10,2013-03-24 22:04:00,
2013-03-24 15:19:00,51.6,34.0,30.19,SSW,194,1.0,2.0,51,0.00,,,0.00,weatherlink.com 1.10,2013-03-24 22:19:00,
2013-03-24 15:34:00,52.1,32.0,30.18,ENE,75,0.0,3.0,47,0.00,,,0.00,weatherlink.com 1.10,2013-03-24 22:34:00,
2013-03-24 15:49:00,53.2,31.0,30.18,SSE,155,0.0,2.0,43,0.00,,,0.00,weatherlink.com 1.10,2013-03-24 22:49:00,
2013-03-24 16:04:00,53.3,29.0,30.16,SSE,165,2.0,4.0,39,0.00,,,0.00,weatherlink.com 1.10,2013-03-24 23:04:00,
2013-03-24 16:19:00,53.6,28.0,30.16,SSW,204,0.0,2.0,37,0.00,,,0.00,weatherlink.com 1.10,2013-03-24 23:19:00,
2013-03-24 16:34:00,54.2,29.0,30.16,ESE,115,0.0,1.0,38,0.00,,,0.00,weatherlink.com 1.10,2013-03-24 23:34:00,
2013-03-24 16:49:00,53.2,29.0,30.16,ENE,60,0.0,2.0,40,0.00,,,0.00,weatherlink.com 1.10,2013-03-24 23:49:00,
2013-03-24 17:04:00,53.6,30.0,30.15,SE,146,0.0,2.0,41,0.00,,,0.00,weatherlink.com 1.10,2013-03-25 00:04:00,
2013-03-24 17:19:00,53.9,32.0,30.14,SSW,202,0.0,4.0,43,0.00,,,0.00,weatherlink.com 1.10,2013-03-25 00:19:00,
2013-03-24 17:34:00,54.7,31.0,30.14,ESE,119,2.0,2.0,41,0.00,,,0.00,weatherlink.com 1.10,2013-03-25 00:34:00,
2013-03-24 17:49:00,53.2,32.0,30.14,NNW,331,1.0,4.0,45,0.00,,,0.00,weatherlink.com 1.10,2013-03-25 00:49:00,
2013-03-24 18:04:00,52.7,32.0,30.13,NNW,330,1.0,1.0,45,0.00,,,0.00,weatherlink.com 1.10,2013-03-25 01:04:00,
2013-03-24 18:19:00,52.1,32.0,30.13,WNW,294,0.0,1.0,47,0.00,,,0.00,weatherlink.com 1.10,2013-03-25 01:19:00,
2013-03-24 18:34:00,51.5,33.0,30.12,NNW,347,0.0,1.0,49,0.00,,,0.00,weatherlink.com 1.10,2013-03-25 01:34:00,
2013-03-24 18:50:00,50.8,34.0,30.12,NNW,347,0.0,1.0,52,0.00,,,0.00,weatherlink.com 1.10,2013-03-25 01:50:00,
2013-03-24 19:05:00,49.8,34.0,30.12,NNW,334,0.0,1.0,55,0.00,,,0.00,weatherlink.com 1.10,2013-03-25 02:05:00,
2013-03-24 19:20:00,49.0,35.0,30.12,NNW,342,0.0,1.0,58,0.00,,,0.00,weatherlink.com 1.10,2013-03-25 02:20:00,
2013-03-24 19:35:00,47.7,35.0,30.12,NNW,342,0.0,0.0,61,0.00,,,0.00,weatherlink.com 1.10,2013-03-25 02:35:00,
2013-03-24 19:50:00,46.4,34.0,30.11,NNW,343,0.0,0.0,62,0.00,,,0.00,weatherlink.com 1.10,2013-03-25 02:50:00,
2013-03-24 20:05:00,45.8,34.0,30.11,NNW,343,0.0,0.0,63,0.00,,,0.00,weatherlink.com 1.10,2013-03-25 03:05:00,
2013-03-24 20:20:00,44.6,34.0,30.11,NNW,342,0.0,0.0,66,0.00,,,0.00,weatherlink.com 1.10,2013-03-25 03:20:00,
2013-03-24 20:35:00,44.2,35.0,30.11,NNW,342,0.0,0.0,69,0.00,,,0.00,weatherlink.com 1.10,2013-03-25 03:35:00,
2013-03-24 20:50:00,43.2,35.0,30.12,NNW,343,0.0,0.0,72,0.00,,,0.00,weatherlink.com 1.10,2013-03-25 03:50:00,
2013-03-24 21:05:00,43.5,35.0,30.12,West,274,0.0,1.0,71,0.00,,,0.00,weatherlink.com 1.10,2013-03-25 04:05:00,
2013-03-24 21:20:00,42.8,35.0,30.12,SSW,201,0.0,0.0,74,0.00,,,0.00,weatherlink.com 1.10,2013-03-25 04:20:00,
2013-03-24 21:35:00,42.3,36.0,30.12,SSW,201,0.0,0.0,79,0.00,,,0.00,weatherlink.com 1.10,2013-03-25 04:35:00,
2013-03-24 21:50:00,41.7,37.0,30.12,SSW,201,0.0,0.0,82,0.00,,,0.00,weatherlink.com 1.10,2013-03-25 04:50:00,
2013-03-24 22:05:00,41.2,36.0,30.12,SSW,201,0.0,0.0,82,0.00,,,0.00,weatherlink.com 1.10,2013-03-25 05:05:00,
2013-03-24 22:20:00,40.8,36.0,30.12,SSW,201,0.0,0.0,83,0.00,,,0.00,weatherlink.com 1.10,2013-03-25 05:20:00,
2013-03-24 22:35:00,40.6,37.0,30.12,SSW,201,0.0,0.0,85,0.00,,,0.00,weatherlink.com 1.10,2013-03-25 05:35:00,
2013-03-24 22:50:00,40.9,36.0,30.12,SSW,201,0.0,0.0,84,0.00,,,0.00,weatherlink.com 1.10,2013-03-25 05:50:00,
2013-03-24 23:05:00,40.9,37.0,30.12,WSW,253,0.0,1.0,85,0.00,,,0.00,weatherlink.com 1.10,2013-03-25 06:05:00,
2013-03-24 23:20:00,40.8,37.0,30.12,SW,221,0.0,0.0,85,0.00,,,0.00,weatherlink.com 1.10,2013-03-25 06:20:00,
2013-03-24 23:35:00,40.9,37.0,30.12,SW,221,0.0,1.0,85,0.00,,,0.00,weatherlink.com 1.10,2013-03-25 06:35:00,
2013-03-24 23:50:00,40.7,37.0,30.12,SW,221,0.0,0.0,86,0.00,,,0.00,weatherlink.com 1.10,2013-03-25 06:50:00,